TimeCST,TemperatureF,Dew PointF,Humidity,Sea Level PressureIn,VisibilityMPH,Wind Direction,Wind SpeedMPH,Gust SpeedMPH,PrecipitationIn,Events,Conditions,WindDirDegrees,DateUTC
12:13 AM,41.0,33.8,76,29.65,10.0,Calm,Calm,-,N/A,,Overcast,0,2012-12-15 06:13:00
12:33 AM,39.2,33.8,81,29.63,10.0,Calm,Calm,-,N/A,,Overcast,0,2012-12-15 06:33:00
12:52 AM,39.2,33.8,81,29.61,10.0,Calm,Calm,-,N/A,,Overcast,0,2012-12-15 06:52:00
1:13 AM,37.4,33.8,87,29.60,10.0,Calm,Calm,-,N/A,,Mostly Cloudy,0,2012-12-15 07:13:00
1:33 AM,39.2,33.8,81,29.61,10.0,ESE,3.5,-,N/A,,Overcast,120,2012-12-15 07:33:00
1:52 AM,37.4,33.8,87,29.62,10.0,Calm,Calm,-,N/A,,Scattered Clouds,0,2012-12-15 07:52:00
2:13 AM,37.4,33.8,87,29.62,10.0,Calm,Calm,-,N/A,Rain,Light Rain,0,2012-12-15 08:13:00
2:32 AM,39.2,35.6,87,29.62,10.0,Calm,Calm,-,N/A,Rain,Light Rain,0,2012-12-15 08:32:00
2:52 AM,37.4,35.6,93,29.61,10.0,Calm,Calm,-,N/A,,Drizzle,0,2012-12-15 08:52:00
3:13 AM,37.4,35.6,93,29.60,5.0,Calm,Calm,-,N/A,Rain,Rain,0,2012-12-15 09:13:00
3:32 AM,37.4,35.6,93,29.59,10.0,Calm,Calm,-,0.01,Rain,Light Rain,0,2012-12-15 09:32:00
3:53 AM,37.4,37.4,100,29.58,10.0,Calm,Calm,-,0.01,,Light Drizzle,0,2012-12-15 09:53:00
4:13 AM,37.4,37.4,100,29.56,10.0,Calm,Calm,-,N/A,Rain,Light Rain,0,2012-12-15 10:13:00
4:32 AM,39.2,37.4,93,29.56,4.0,ESE,3.5,-,0.03,Rain,Rain,120,2012-12-15 10:32:00
4:53 AM,37.4,37.4,100,29.55,4.0,Calm,Calm,-,0.09,Rain,Rain,0,2012-12-15 10:53:00
5:12 AM,37.4,37.4,100,29.53,5.0,Calm,Calm,-,0.02,Rain,Rain,0,2012-12-15 11:12:00
5:32 AM,37.4,37.4,100,29.53,3.0,Calm,Calm,-,0.03,Rain,Light Rain,0,2012-12-15 11:32:00
5:53 AM,37.4,35.6,93,29.52,2.5,Calm,Calm,-,0.04,Rain,Light Rain,0,2012-12-15 11:53:00
6:12 AM,37.4,35.6,93,29.52,2.0,Calm,Calm,-,0.01,Rain,Light Rain,0,2012-12-15 12:12:00
6:32 AM,35.6,35.6,100,29.51,0.8,Calm,Calm,-,0.01,Rain,Light Rain,0,2012-12-15 12:32:00
6:53 AM,35.6,35.6,100,29.51,0.2,Calm,Calm,-,0.01,,Drizzle,0,2012-12-15 12:53:00
7:12 AM,35.6,35.6,100,29.50,0.2,Calm,Calm,-,N/A,,Drizzle,0,2012-12-15 13:12:00
7:32 AM,35.6,35.6,100,29.50,0.2,Calm,Calm,-,N/A,,Drizzle,0,2012-12-15 13:32:00
7:53 AM,35.6,35.6,100,29.50,0.2,Calm,Calm,-,N/A,,Drizzle,0,2012-12-15 13:53:00
8:12 AM,37.4,37.4,100,29.50,3.0,Calm,Calm,-,N/A,Rain,Rain,0,2012-12-15 14:12:00
8:32 AM,39.2,37.4,93,29.50,7.0,Calm,Calm,-,N/A,Rain,Light Rain,0,2012-12-15 14:32:00
8:53 AM,39.2,37.4,93,29.49,10.0,Calm,Calm,-,N/A,Rain,Rain,0,2012-12-15 14:53:00
9:12 AM,39.2,39.2,100,29.49,10.0,Calm,Calm,-,N/A,Rain,Rain,0,2012-12-15 15:12:00
9:32 AM,39.2,39.2,100,29.49,10.0,Calm,Calm,-,N/A,,Drizzle,0,2012-12-15 15:32:00
9:53 AM,39.2,39.2,100,29.49,10.0,Calm,Calm,-,N/A,,Light Drizzle,0,2012-12-15 15:53:00
10:12 AM,39.2,39.2,100,29.49,7.0,Calm,Calm,-,N/A,Rain,Rain,0,2012-12-15 16:12:00
10:32 AM,39.2,39.2,100,29.50,5.0,Calm,Calm,-,N/A,Rain,Rain,0,2012-12-15 16:32:00
10:53 AM,39.2,39.2,100,29.49,5.0,Calm,Calm,-,N/A,,Drizzle,0,2012-12-15 16:53:00
11:12 AM,39.2,39.2,100,29.49,4.0,Calm,Calm,-,N/A,,Drizzle,0,2012-12-15 17:12:00
11:32 AM,39.2,39.2,100,29.48,2.0,Calm,Calm,-,N/A,,Overcast,0,2012-12-15 17:32:00
11:53 AM,37.4,37.4,100,29.49,1.0,Calm,Calm,-,N/A,,Overcast,0,2012-12-15 17:53:00
12:12 PM,37.4,37.4,100,29.48,0.5,Calm,Calm,-,N/A,,Light Drizzle,0,2012-12-15 18:12:00
12:53 PM,37.4,37.4,100,29.48,0.8,Calm,Calm,-,N/A,,Light Drizzle,0,2012-12-15 18:53:00
1:12 PM,35.6,35.6,100,29.47,0.8,Calm,Calm,-,N/A,,Drizzle,0,2012-12-15 19:12:00
1:53 PM,35.6,35.6,100,29.46,1.0,Calm,Calm,-,N/A,,Light Drizzle,0,2012-12-15 19:53:00
2:12 PM,35.6,35.6,100,29.47,1.0,Calm,Calm,-,N/A,,Light Drizzle,0,2012-12-15 20:12:00
2:33 PM,35.6,35.6,100,29.47,1.0,WNW,6.9,-,N/A,,Light Drizzle,300,2012-12-15 20:33:00
2:53 PM,35.6,33.8,93,29.47,1.5,NW,3.5,-,N/A,,Overcast,310,2012-12-15 20:53:00
3:12 PM,35.6,33.8,93,29.48,0.8,WNW,3.5,-,N/A,,Overcast,300,2012-12-15 21:12:00
3:33 PM,33.8,33.8,100,29.50,0.5,WNW,3.5,-,N/A,Fog,Fog,300,2012-12-15 21:33:00
3:53 PM,33.8,33.8,100,29.50,0.8,Calm,Calm,-,N/A,,Drizzle,0,2012-12-15 21:53:00
4:12 PM,33.8,33.8,100,29.50,0.8,WNW,5.8,-,N/A,,Light Drizzle,300,2012-12-15 22:12:00
4:33 PM,33.8,33.8,100,29.51,3.0,NW,5.8,-,N/A,,Overcast,310,2012-12-15 22:33:00
4:52 PM,33.8,33.8,100,29.52,3.0,NW,6.9,-,N/A,Snow,Light Snow,310,2012-12-15 22:52:00
5:13 PM,33.8,33.8,100,29.52,2.5,NW,8.1,-,N/A,Snow,Light Snow,310,2012-12-15 23:13:00
5:52 PM,33.8,33.8,100,29.54,3.0,NW,8.1,-,N/A,Snow,Light Snow,310,2012-12-15 23:52:00
6:13 PM,33.8,32.0,93,29.55,3.0,WNW,6.9,-,N/A,Snow,Light Snow,300,2012-12-16 00:13:00
6:32 PM,33.8,32.0,93,29.56,2.0,WNW,8.1,-,N/A,Snow,Light Snow,300,2012-12-16 00:32:00
6:53 PM,33.8,32.0,93,29.57,1.2,WNW,8.1,-,N/A,Snow,Light Snow,300,2012-12-16 00:53:00
7:12 PM,32.0,32.0,100,29.58,1.2,WNW,11.5,16.1,0.01,Snow,Light Snow,300,2012-12-16 01:12:00
7:33 PM,30.2,30.2,100,29.58,1.2,WNW,12.7,18.4,0.02,Snow,Light Snow,300,2012-12-16 01:33:00
7:53 PM,30.2,30.2,100,29.58,1.5,WNW,11.5,18.4,0.02,Snow,Light Snow,300,2012-12-16 01:53:00
8:12 PM,30.2,30.2,100,29.58,1.2,WNW,12.7,19.6,0.01,Snow,Light Snow,300,2012-12-16 02:12:00
8:33 PM,30.2,28.4,93,29.58,1.8,WNW,11.5,19.6,0.01,Snow,Light Snow,300,2012-12-16 02:33:00
8:52 PM,28.4,28.4,100,29.59,2.0,WNW,13.8,20.7,0.01,Snow,Light Snow,300,2012-12-16 02:52:00
9:13 PM,28.4,28.4,100,29.59,2.0,WNW,15.0,-,N/A,Snow,Light Snow,300,2012-12-16 03:13:00
9:32 PM,28.4,28.4,100,29.59,2.0,WNW,12.7,-,N/A,Snow,Light Snow,300,2012-12-16 03:32:00
9:53 PM,28.4,28.4,100,29.59,3.0,NW,16.1,21.9,N/A,Snow,Light Snow,310,2012-12-16 03:53:00
10:12 PM,28.4,26.6,93,29.59,3.0,WNW,12.7,19.6,N/A,Snow,Light Snow,300,2012-12-16 04:12:00
10:33 PM,28.4,26.6,93,29.59,3.0,WNW,13.8,17.3,N/A,,Overcast,300,2012-12-16 04:33:00
10:52 PM,28.4,26.6,93,29.59,3.0,WNW,16.1,-,N/A,,Overcast,300,2012-12-16 04:52:00
11:12 PM,26.6,24.8,93,29.60,4.0,WNW,15.0,-,N/A,,Overcast,300,2012-12-16 05:12:00
11:33 PM,26.6,24.8,93,29.60,5.0,NW,12.7,24.2,N/A,,Overcast,310,2012-12-16 05:33:00
11:52 PM,26.6,24.8,93,29.61,7.0,NW,18.4,24.2,N/A,,Overcast,310,2012-12-16 05:52:00